TimeEDT,TemperatureF,Dew PointF,Humidity,Sea Level PressureIn,VisibilityMPH,Wind Direction,Wind SpeedMPH,Gust SpeedMPH,PrecipitationIn,Events,Conditions,WindDirDegrees,DateUTC
12:15 AM,60.8,60.8,100,30.09,10.0,Calm,Calm,-,N/A,,Clear,0,2013-10-13 04:15:00
12:35 AM,60.8,59.0,94,30.08,10.0,Calm,Calm,-,N/A,,Clear,0,2013-10-13 04:35:00
12:55 AM,60.8,59.0,94,30.08,10.0,Calm,Calm,-,N/A,,Clear,0,2013-10-13 04:55:00
1:15 AM,60.8,59.0,94,30.08,10.0,Calm,Calm,-,N/A,,Clear,0,2013-10-13 05:15:00
1:35 AM,59.0,59.0,100,30.08,10.0,Calm,Calm,-,N/A,,Clear,0,2013-10-13 05:35:00
1:55 AM,59.0,59.0,100,30.09,10.0,Calm,Calm,-,N/A,,Clear,0,2013-10-13 05:55:00
2:15 AM,59.0,59.0,100,30.09,10.0,Calm,Calm,-,N/A,,Clear,0,2013-10-13 06:15:00
2:35 AM,59.0,59.0,100,30.09,10.0,Calm,Calm,-,N/A,,Clear,0,2013-10-13 06:35:00
2:55 AM,59.0,59.0,100,30.09,10.0,Calm,Calm,-,N/A,,Clear,0,2013-10-13 06:55:00
3:15 AM,60.8,59.0,94,30.10,10.0,North,4.6,-,N/A,,Clear,350,2013-10-13 07:15:00
3:35 AM,60.8,59.0,94,30.09,10.0,NNW,3.5,-,N/A,,Clear,340,2013-10-13 07:35:00
3:55 AM,59.0,59.0,100,30.09,10.0,NNW,3.5,-,N/A,,Scattered Clouds,330,2013-10-13 07:55:00
4:15 AM,60.8,59.0,94,30.09,10.0,Calm,Calm,-,N/A,,Mostly Cloudy,0,2013-10-13 08:15:00
4:35 AM,60.8,59.0,94,30.09,10.0,Calm,Calm,-,N/A,,Scattered Clouds,0,2013-10-13 08:35:00
4:55 AM,60.8,59.0,94,30.10,10.0,Calm,Calm,-,N/A,,Clear,0,2013-10-13 08:55:00
5:15 AM,60.8,59.0,94,30.10,10.0,Calm,Calm,-,N/A,,Clear,0,2013-10-13 09:15:00
5:35 AM,59.0,59.0,100,30.10,10.0,Calm,Calm,-,N/A,,Clear,0,2013-10-13 09:35:00
5:55 AM,59.0,59.0,100,30.10,10.0,Calm,Calm,-,N/A,,Clear,0,2013-10-13 09:55:00
6:15 AM,59.0,59.0,100,30.11,10.0,Calm,Calm,-,N/A,,Clear,0,2013-10-13 10:15:00
6:35 AM,59.0,59.0,100,30.12,5.0,Calm,Calm,-,N/A,,Clear,0,2013-10-13 10:35:00
6:55 AM,59.0,57.2,94,30.13,10.0,Calm,Calm,-,N/A,,Mostly Cloudy,0,2013-10-13 10:55:00
7:15 AM,59.0,59.0,100,30.13,10.0,Calm,Calm,-,N/A,,Mostly Cloudy,0,2013-10-13 11:15:00
7:35 AM,59.0,59.0,100,30.13,10.0,Calm,Calm,-,N/A,,Mostly Cloudy,0,2013-10-13 11:35:00
7:55 AM,60.8,60.8,100,30.13,10.0,Calm,Calm,-,N/A,,Mostly Cloudy,0,2013-10-13 11:55:00
8:15 AM,62.6,60.8,94,30.14,10.0,Calm,Calm,-,N/A,,Scattered Clouds,0,2013-10-13 12:15:00
8:35 AM,62.6,60.8,94,30.15,10.0,Calm,Calm,-,N/A,,Scattered Clouds,0,2013-10-13 12:35:00
8:55 AM,62.6,62.6,100,30.16,10.0,Calm,Calm,-,N/A,,Scattered Clouds,0,2013-10-13 12:55:00
9:15 AM,64.4,62.6,94,30.16,10.0,Calm,Calm,-,N/A,,Clear,0,2013-10-13 13:15:00
9:35 AM,69.8,64.4,83,30.17,10.0,NE,5.8,-,N/A,,Clear,40,2013-10-13 13:35:00
9:55 AM,71.6,64.4,78,30.17,10.0,ENE,4.6,-,N/A,,Clear,70,2013-10-13 13:55:00
10:15 AM,73.4,64.4,73,30.18,10.0,ENE,5.8,-,N/A,,Clear,60,2013-10-13 14:15:00
10:35 AM,75.2,64.4,69,30.18,10.0,East,6.9,-,N/A,,Clear,80,2013-10-13 14:35:00
10:55 AM,77.0,64.4,65,30.19,10.0,ENE,3.5,-,N/A,,Clear,70,2013-10-13 14:55:00
11:15 AM,78.8,64.4,61,30.19,10.0,NNE,5.8,-,N/A,,Clear,30,2013-10-13 15:15:00
11:55 AM,78.8,64.4,61,30.18,10.0,NNE,9.2,-,N/A,,Clear,30,2013-10-13 15:55:00
12:15 PM,80.6,64.4,58,30.17,10.0,NE,5.8,-,N/A,,Clear,40,2013-10-13 16:15:00
12:35 PM,80.6,64.4,58,30.17,10.0,North,6.9,-,N/A,,Clear,360,2013-10-13 16:35:00
12:55 PM,82.4,62.6,51,30.17,10.0,NE,8.1,-,N/A,,Clear,50,2013-10-13 16:55:00
1:15 PM,82.4,62.6,51,30.16,10.0,NNE,8.1,-,N/A,,Scattered Clouds,30,2013-10-13 17:15:00
1:35 PM,82.4,64.4,54,30.15,10.0,NE,9.2,-,N/A,,Scattered Clouds,40,2013-10-13 17:35:00
1:55 PM,80.6,62.6,54,30.14,10.0,ENE,6.9,-,N/A,,Mostly Cloudy,60,2013-10-13 17:55:00
2:15 PM,80.6,62.6,54,30.13,10.0,NNE,5.8,-,N/A,,Mostly Cloudy,30,2013-10-13 18:15:00
2:35 PM,80.6,62.6,54,30.12,10.0,ENE,8.1,-,N/A,,Mostly Cloudy,60,2013-10-13 18:35:00
2:55 PM,80.6,62.6,54,30.12,10.0,NE,5.8,-,N/A,,Mostly Cloudy,50,2013-10-13 18:55:00
3:15 PM,80.6,62.6,54,30.12,10.0,NNE,8.1,-,N/A,,Mostly Cloudy,30,2013-10-13 19:15:00
3:35 PM,82.4,64.4,54,30.11,10.0,ENE,9.2,-,N/A,,Overcast,60,2013-10-13 19:35:00
3:55 PM,80.6,62.6,54,30.11,10.0,NNE,8.1,-,N/A,,Overcast,30,2013-10-13 19:55:00
4:15 PM,78.8,64.4,61,30.12,10.0,NE,5.8,-,N/A,,Overcast,40,2013-10-13 20:15:00
4:35 PM,78.8,64.4,61,30.12,10.0,NNE,6.9,-,N/A,,Overcast,20,2013-10-13 20:35:00
4:55 PM,78.8,64.4,61,30.11,10.0,NNE,3.5,-,N/A,,Overcast,30,2013-10-13 20:55:00
5:15 PM,77.0,64.4,65,30.12,10.0,NE,5.8,-,N/A,,Overcast,40,2013-10-13 21:15:00
5:35 PM,77.0,64.4,65,30.12,10.0,NE,6.9,-,N/A,,Overcast,40,2013-10-13 21:35:00
5:55 PM,77.0,64.4,65,30.12,10.0,NE,4.6,-,N/A,,Overcast,40,2013-10-13 21:55:00
6:15 PM,77.0,64.4,65,30.12,10.0,NE,4.6,-,N/A,,Overcast,40,2013-10-13 22:15:00
6:35 PM,75.2,64.4,69,30.12,10.0,NE,3.5,-,N/A,,Overcast,40,2013-10-13 22:35:00
6:55 PM,73.4,64.4,73,30.13,10.0,NE,5.8,-,N/A,,Overcast,40,2013-10-13 22:55:00
7:15 PM,73.4,64.4,73,30.13,10.0,NE,4.6,-,N/A,,Overcast,50,2013-10-13 23:15:00
7:35 PM,73.4,64.4,73,30.14,10.0,NNE,3.5,-,N/A,,Overcast,30,2013-10-13 23:35:00
7:55 PM,71.6,64.4,78,30.14,10.0,NE,3.5,-,N/A,,Overcast,40,2013-10-13 23:55:00
8:15 PM,71.6,64.4,78,30.15,10.0,NE,3.5,-,N/A,,Overcast,40,2013-10-14 00:15:00
8:35 PM,71.6,64.4,78,30.15,10.0,NE,4.6,-,N/A,,Overcast,40,2013-10-14 00:35:00
8:55 PM,71.6,64.4,78,30.16,10.0,NE,3.5,-,N/A,,Overcast,50,2013-10-14 00:55:00
9:15 PM,71.6,64.4,78,30.16,10.0,ENE,4.6,-,N/A,,Overcast,60,2013-10-14 01:15:00
9:35 PM,71.6,64.4,78,30.16,10.0,NE,3.5,-,N/A,,Overcast,40,2013-10-14 01:35:00
9:55 PM,69.8,64.4,83,30.17,10.0,Calm,Calm,-,N/A,,Overcast,0,2013-10-14 01:55:00
10:15 PM,69.8,64.4,83,30.17,10.0,Calm,Calm,-,N/A,,Overcast,0,2013-10-14 02:15:00
10:35 PM,68.0,64.4,88,30.17,10.0,Calm,Calm,-,N/A,,Mostly Cloudy,0,2013-10-14 02:35:00
10:55 PM,68.0,64.4,88,30.17,10.0,Calm,Calm,-,N/A,,Scattered Clouds,0,2013-10-14 02:55:00
11:15 PM,64.4,64.4,100,30.17,10.0,Calm,Calm,-,N/A,,Scattered Clouds,0,2013-10-14 03:15:00
11:35 PM,66.2,64.4,94,30.17,10.0,NE,4.6,-,N/A,,Clear,40,2013-10-14 03:35:00
11:55 PM,66.2,64.4,94,30.17,10.0,ENE,3.5,-,N/A,,Clear,60,2013-10-14 03:55:00